Location: Worth Mountain WMA
(34.9569°N, 81.4819°W)
Time: 15:17:02
(UTC-04:00)

Helios 1B rocket - Pass Details

Date: 18 August 2017
Orbit: 577 x 586 km, 98.2° (Epoch: 23 September)

Event Time Altitude Azimuth Distance (km) Brightness Sun altitude
Rises 22:09:37 0° 5° (N) 2,796 6.3 -22.8°
Reaches altitude 10° 22:11:49 10° 360° (N) 1,894 5.5 -23.2°
Maximum altitude 22:15:45 46° 286° (WNW) 776 3.4 -23.8°
Enters shadow 22:18:30 18° 219° (SW) 1,436 4.4 -24.3°
